Year,Month,Day,Hour,Minute,Value (Times are PST for windspeed in km/hr)
2007,12,16,00,00,1.60
2007,12,16,00,01,2.00
2007,12,16,00,02,0.80
2007,12,16,00,03,1.80
2007,12,16,00,04,0.30
2007,12,16,00,05,1.70
2007,12,16,00,06,3.40
2007,12,16,00,07,1.10
2007,12,16,00,08,2.50
2007,12,16,00,09,3.00
2007,12,16,00,10,4.00
2007,12,16,00,11,2.60
2007,12,16,00,12,4.90
2007,12,16,00,13,5.90
2007,12,16,00,14,3.10
2007,12,16,00,15,5.80
2007,12,16,00,16,5.40
2007,12,16,00,17,2.60
2007,12,16,00,18,3.20
2007,12,16,00,19,0.90
2007,12,16,00,20,2.20
2007,12,16,00,21,3.30
2007,12,16,00,22,2.50
2007,12,16,00,23,1.60
2007,12,16,00,24,2.90
2007,12,16,00,25,4.80
2007,12,16,00,26,4.50
2007,12,16,00,27,7.90
2007,12,16,00,28,4.90
2007,12,16,00,29,2.80
2007,12,16,00,30,2.40
2007,12,16,00,31,3.30
2007,12,16,00,32,4.20
2007,12,16,00,33,4.00
2007,12,16,00,34,3.80
2007,12,16,00,35,3.90
2007,12,16,00,36,5.30
2007,12,16,00,37,5.50
2007,12,16,00,38,6.00
2007,12,16,00,39,2.50
2007,12,16,00,40,0.80
2007,12,16,00,41,4.40
2007,12,16,00,42,5.70
2007,12,16,00,43,4.20
2007,12,16,00,44,1.70
2007,12,16,00,45,2.70
2007,12,16,00,46,4.20
2007,12,16,00,47,3.80
2007,12,16,00,48,3.50
2007,12,16,00,49,4.00
2007,12,16,00,50,6.10
2007,12,16,00,51,4.60
2007,12,16,00,52,5.40
2007,12,16,00,53,2.90
2007,12,16,00,54,2.40
2007,12,16,00,55,0.50
2007,12,16,00,56,2.10
2007,12,16,00,57,3.90
2007,12,16,00,58,4.30
2007,12,16,00,59,4.40
2007,12,16,01,00,3.50
2007,12,16,01,01,1.40
2007,12,16,01,02,0.00
2007,12,16,01,03,0.00
2007,12,16,01,04,0.20
2007,12,16,01,05,2.50
2007,12,16,01,06,2.90
2007,12,16,01,07,2.90
2007,12,16,01,08,2.30
2007,12,16,01,09,0.70
2007,12,16,01,10,1.60
2007,12,16,01,11,1.50
2007,12,16,01,12,0.00
2007,12,16,01,13,0.00
2007,12,16,01,14,0.00
2007,12,16,01,15,0.00
2007,12,16,01,16,0.00
2007,12,16,01,17,0.00
2007,12,16,01,18,0.00
2007,12,16,01,19,0.00
2007,12,16,01,20,0.00
2007,12,16,01,21,0.00
2007,12,16,01,22,0.10
2007,12,16,01,23,0.70
2007,12,16,01,24,2.10
2007,12,16,01,25,1.80
2007,12,16,01,26,0.90
2007,12,16,01,27,0.00
2007,12,16,01,28,0.00
2007,12,16,01,29,0.00
2007,12,16,01,30,0.00
2007,12,16,01,31,0.20
2007,12,16,01,32,1.60
2007,12,16,01,33,2.20
2007,12,16,01,34,2.30
2007,12,16,01,35,1.30
2007,12,16,01,36,3.00
2007,12,16,01,37,2.30
2007,12,16,01,38,0.00
2007,12,16,01,39,0.00
2007,12,16,01,40,0.50
2007,12,16,01,41,3.20
2007,12,16,01,42,3.40
2007,12,16,01,43,1.70
2007,12,16,01,44,0.60
2007,12,16,01,45,0.60
2007,12,16,01,46,2.40
2007,12,16,01,47,1.60
2007,12,16,01,48,1.80
2007,12,16,01,49,0.10
2007,12,16,01,50,0.00
2007,12,16,01,51,0.30
2007,12,16,01,52,0.20
2007,12,16,01,53,1.60
2007,12,16,01,54,2.90
2007,12,16,01,55,4.70
2007,12,16,01,56,3.90
2007,12,16,01,57,6.30
2007,12,16,01,58,6.60
2007,12,16,01,59,7.30
2007,12,16,02,00,6.30
2007,12,16,02,01,6.40
2007,12,16,02,02,8.80
2007,12,16,02,03,7.70
2007,12,16,02,04,6.30
2007,12,16,02,05,8.10
2007,12,16,02,06,8.10
2007,12,16,02,07,7.60
2007,12,16,02,08,6.40
2007,12,16,02,09,4.30
2007,12,16,02,10,4.40
2007,12,16,02,11,6.90
2007,12,16,02,12,2.50
2007,12,16,02,13,4.00
2007,12,16,02,14,4.90
2007,12,16,02,15,3.30
2007,12,16,02,16,0.70
2007,12,16,02,17,2.80
2007,12,16,02,18,3.20
2007,12,16,02,19,4.70
2007,12,16,02,20,3.90
2007,12,16,02,21,3.50
2007,12,16,02,22,2.40
2007,12,16,02,23,2.80
2007,12,16,02,24,3.40
2007,12,16,02,25,1.30
2007,12,16,02,26,0.20
2007,12,16,02,27,0.00
2007,12,16,02,28,0.00
2007,12,16,02,29,0.00
2007,12,16,02,30,0.00
2007,12,16,02,31,1.60
2007,12,16,02,32,1.80
2007,12,16,02,33,1.50
2007,12,16,02,34,2.50
2007,12,16,02,35,5.20
2007,12,16,02,36,5.50
2007,12,16,02,37,6.50
2007,12,16,02,38,6.50
2007,12,16,02,39,5.70
2007,12,16,02,40,3.80
2007,12,16,02,41,0.70
2007,12,16,02,42,0.00
2007,12,16,02,43,2.40
2007,12,16,02,44,1.20
2007,12,16,02,45,2.20
2007,12,16,02,46,0.30
2007,12,16,02,47,0.50
2007,12,16,02,48,4.40
2007,12,16,02,49,6.00
2007,12,16,02,50,4.60
2007,12,16,02,51,2.40
2007,12,16,02,52,2.60
2007,12,16,02,53,2.40
2007,12,16,02,54,0.70
2007,12,16,02,55,0.00
2007,12,16,02,56,1.20
2007,12,16,02,57,2.90
2007,12,16,02,58,0.20
2007,12,16,02,59,1.60
2007,12,16,03,00,3.70
2007,12,16,03,01,3.00
2007,12,16,03,02,1.90
2007,12,16,03,03,0.00
2007,12,16,03,04,1.20
2007,12,16,03,05,4.30
2007,12,16,03,06,4.90
2007,12,16,03,07,5.10
2007,12,16,03,08,2.70
2007,12,16,03,09,0.50
2007,12,16,03,10,0.10
2007,12,16,03,11,0.10
2007,12,16,03,12,0.00
2007,12,16,03,13,1.40
2007,12,16,03,14,1.60
2007,12,16,03,15,2.90
2007,12,16,03,16,2.70
2007,12,16,03,17,2.10
2007,12,16,03,18,3.10
2007,12,16,03,19,4.20
2007,12,16,03,20,4.70
2007,12,16,03,21,4.90
2007,12,16,03,22,6.10
2007,12,16,03,23,4.40
2007,12,16,03,24,3.20
2007,12,16,03,25,2.80
2007,12,16,03,26,1.30
2007,12,16,03,27,1.90
2007,12,16,03,28,2.80
2007,12,16,03,29,2.80
2007,12,16,03,30,2.90
2007,12,16,03,31,2.10
2007,12,16,03,32,2.10
2007,12,16,03,33,1.90
2007,12,16,03,34,2.20
2007,12,16,03,35,4.30
2007,12,16,03,36,2.90
2007,12,16,03,37,2.30
2007,12,16,03,38,0.50
2007,12,16,03,39,2.30
2007,12,16,03,40,2.00
2007,12,16,03,41,0.70
2007,12,16,03,42,0.90
2007,12,16,03,43,1.00
2007,12,16,03,44,0.70
2007,12,16,03,45,2.60
2007,12,16,03,46,2.60
2007,12,16,03,47,2.80
2007,12,16,03,48,2.00
2007,12,16,03,49,2.30
2007,12,16,03,50,0.80
2007,12,16,03,51,2.60
2007,12,16,03,52,1.80
2007,12,16,03,53,5.30
2007,12,16,03,54,4.10
2007,12,16,03,55,5.70
2007,12,16,03,56,3.90
2007,12,16,03,57,3.40
2007,12,16,03,58,0.70
2007,12,16,03,59,0.00
2007,12,16,04,00,2.00
2007,12,16,04,01,4.20
2007,12,16,04,02,3.90
2007,12,16,04,03,4.20
2007,12,16,04,04,0.50
2007,12,16,04,05,0.00
2007,12,16,04,06,0.20
2007,12,16,04,07,2.80
2007,12,16,04,08,4.30
2007,12,16,04,09,3.70
2007,12,16,04,10,4.30
2007,12,16,04,11,3.40
2007,12,16,04,12,3.50
2007,12,16,04,13,4.30
2007,12,16,04,14,5.10
2007,12,16,04,15,0.70
2007,12,16,04,16,1.40
2007,12,16,04,17,2.40
2007,12,16,04,18,2.10
2007,12,16,04,19,3.00
2007,12,16,04,20,1.70
2007,12,16,04,21,0.10
2007,12,16,04,22,1.10
2007,12,16,04,23,1.20
2007,12,16,04,24,2.90
2007,12,16,04,25,7.60
2007,12,16,04,26,10.80
2007,12,16,04,27,8.70
2007,12,16,04,28,7.40
2007,12,16,04,29,8.60
2007,12,16,04,30,8.90
2007,12,16,04,31,7.90
2007,12,16,04,32,11.40
2007,12,16,04,33,7.70
2007,12,16,04,34,5.80
2007,12,16,04,35,7.60
2007,12,16,04,36,8.90
2007,12,16,04,37,7.00
2007,12,16,04,38,6.10
2007,12,16,04,39,7.70
2007,12,16,04,40,6.30
2007,12,16,04,41,8.20
2007,12,16,04,42,7.80
2007,12,16,04,43,9.80
2007,12,16,04,44,6.60
2007,12,16,04,45,5.40
2007,12,16,04,46,5.20
2007,12,16,04,47,6.40
2007,12,16,04,48,4.50
2007,12,16,04,49,6.70
2007,12,16,04,50,4.20
2007,12,16,04,51,6.20
2007,12,16,04,52,5.20
2007,12,16,04,53,5.00
2007,12,16,04,54,4.80
2007,12,16,04,55,5.60
2007,12,16,04,56,6.30
2007,12,16,04,57,8.10
2007,12,16,04,58,8.10
2007,12,16,04,59,12.40
2007,12,16,05,00,18.60
2007,12,16,05,01,16.20
2007,12,16,05,02,16.90
2007,12,16,05,03,16.70
2007,12,16,05,04,19.10
2007,12,16,05,05,19.40
2007,12,16,05,06,15.80
2007,12,16,05,07,19.50
2007,12,16,05,08,13.40
2007,12,16,05,09,17.00
2007,12,16,05,10,19.60
2007,12,16,05,11,19.70
2007,12,16,05,12,21.00
2007,12,16,05,13,18.90
2007,12,16,05,14,19.60
2007,12,16,05,15,19.40
2007,12,16,05,16,21.00
2007,12,16,05,17,21.70
2007,12,16,05,18,27.10
2007,12,16,05,19,26.70
2007,12,16,05,20,20.30
2007,12,16,05,21,25.40
2007,12,16,05,22,26.00
2007,12,16,05,23,27.00
2007,12,16,05,24,22.80
2007,12,16,05,25,28.00
2007,12,16,05,26,38.90
2007,12,16,05,27,22.30
2007,12,16,05,28,20.90
2007,12,16,05,29,25.60
2007,12,16,05,30,24.80
2007,12,16,05,31,23.80
2007,12,16,05,32,23.40
2007,12,16,05,33,24.50
2007,12,16,05,34,18.00
2007,12,16,05,35,23.90
2007,12,16,05,36,31.40
2007,12,16,05,37,27.30
2007,12,16,05,38,17.80
2007,12,16,05,39,14.50
2007,12,16,05,40,17.70
2007,12,16,05,41,22.80
2007,12,16,05,42,26.20
2007,12,16,05,43,25.00
2007,12,16,05,44,25.50
2007,12,16,05,45,26.90
2007,12,16,05,46,27.20
2007,12,16,05,47,19.30
2007,12,16,05,48,25.30
2007,12,16,05,49,28.50
2007,12,16,05,50,30.50
2007,12,16,05,51,29.70
2007,12,16,05,52,24.10
2007,12,16,05,53,30.50
2007,12,16,05,54,32.00
2007,12,16,05,55,21.80
2007,12,16,05,56,24.00
2007,12,16,05,57,25.20
2007,12,16,05,58,28.10
2007,12,16,05,59,23.90
2007,12,16,06,00,27.20
2007,12,16,06,01,21.40
2007,12,16,06,02,27.40
2007,12,16,06,03,28.90
2007,12,16,06,04,18.00
2007,12,16,06,05,26.00
2007,12,16,06,06,22.50
2007,12,16,06,07,25.50
2007,12,16,06,08,20.70
2007,12,16,06,09,22.20
2007,12,16,06,10,29.90
2007,12,16,06,11,20.70
2007,12,16,06,12,22.20
2007,12,16,06,13,22.10
2007,12,16,06,14,22.90
2007,12,16,06,15,17.70
2007,12,16,06,16,20.60
2007,12,16,06,17,27.40
2007,12,16,06,18,26.60
2007,12,16,06,19,23.60
2007,12,16,06,20,27.30
2007,12,16,06,21,17.60
2007,12,16,06,22,24.50
2007,12,16,06,23,24.90
2007,12,16,06,24,32.40
2007,12,16,06,25,30.30
2007,12,16,06,26,30.20
2007,12,16,06,27,26.50
2007,12,16,06,28,24.20
2007,12,16,06,29,25.10
2007,12,16,06,30,18.60
2007,12,16,06,31,23.20
2007,12,16,06,32,21.20
2007,12,16,06,33,23.30
2007,12,16,06,34,26.30
2007,12,16,06,35,24.00
2007,12,16,06,36,28.50
2007,12,16,06,37,22.10
2007,12,16,06,38,24.50
2007,12,16,06,39,16.40
2007,12,16,06,40,22.90
2007,12,16,06,41,25.00
2007,12,16,06,42,21.20
2007,12,16,06,43,19.30
2007,12,16,06,44,25.20
2007,12,16,06,45,22.90
2007,12,16,06,46,21.40
2007,12,16,06,47,29.10
2007,12,16,06,48,32.10
2007,12,16,06,49,20.70
2007,12,16,06,50,22.10
2007,12,16,06,51,20.10
2007,12,16,06,52,22.70
2007,12,16,06,53,26.70
2007,12,16,06,54,23.30
2007,12,16,06,55,24.10
2007,12,16,06,56,28.00
2007,12,16,06,57,18.20
2007,12,16,06,58,21.30
2007,12,16,06,59,23.30
2007,12,16,07,00,18.10
2007,12,16,07,01,31.80
2007,12,16,07,02,27.20
2007,12,16,07,03,36.00
2007,12,16,07,04,32.70
2007,12,16,07,05,22.60
2007,12,16,07,06,35.40
2007,12,16,07,07,26.90
2007,12,16,07,08,29.30
2007,12,16,07,09,29.80
2007,12,16,07,10,25.20
2007,12,16,07,11,27.50
2007,12,16,07,12,31.00
2007,12,16,07,13,31.70
2007,12,16,07,14,32.60
2007,12,16,07,15,24.50
2007,12,16,07,16,26.70
2007,12,16,07,17,28.70
2007,12,16,07,18,20.70
2007,12,16,07,19,28.40
2007,12,16,07,20,31.00
2007,12,16,07,21,23.30
2007,12,16,07,22,37.50
2007,12,16,07,23,38.20
2007,12,16,07,24,34.70
2007,12,16,07,25,28.20
2007,12,16,07,26,23.30
2007,12,16,07,27,29.30
2007,12,16,07,28,34.90
2007,12,16,07,29,34.40
2007,12,16,07,30,31.20
2007,12,16,07,31,28.30
2007,12,16,07,32,26.70
2007,12,16,07,33,32.40
2007,12,16,07,34,34.60
2007,12,16,07,35,42.20
2007,12,16,07,36,32.70
2007,12,16,07,37,38.40
2007,12,16,07,38,35.90
2007,12,16,07,39,33.40
2007,12,16,07,40,30.20
2007,12,16,07,41,28.10
2007,12,16,07,42,29.80
2007,12,16,07,43,34.60
2007,12,16,07,44,32.50
2007,12,16,07,45,30.90
2007,12,16,07,46,30.70
2007,12,16,07,47,29.30
2007,12,16,07,48,21.80
2007,12,16,07,49,34.00
2007,12,16,07,50,28.00
2007,12,16,07,51,32.70
2007,12,16,07,52,38.10
2007,12,16,07,53,28.70
2007,12,16,07,54,36.40
2007,12,16,07,55,37.00
2007,12,16,07,56,37.60
2007,12,16,07,57,28.70
2007,12,16,07,58,31.60
2007,12,16,07,59,33.00
2007,12,16,08,00,27.80
2007,12,16,08,01,26.70
2007,12,16,08,02,30.30
2007,12,16,08,03,28.20
2007,12,16,08,04,26.90
2007,12,16,08,05,28.60
2007,12,16,08,06,27.50
2007,12,16,08,07,27.50
2007,12,16,08,08,32.10
2007,12,16,08,09,35.50
2007,12,16,08,10,22.50
2007,12,16,08,11,31.00
2007,12,16,08,12,28.10
2007,12,16,08,13,37.70
2007,12,16,08,14,29.80
2007,12,16,08,15,25.30
2007,12,16,08,16,32.10
2007,12,16,08,17,33.20
2007,12,16,08,18,28.30
2007,12,16,08,19,31.90
2007,12,16,08,20,30.50
2007,12,16,08,21,30.60
2007,12,16,08,22,29.40
2007,12,16,08,23,29.50
2007,12,16,08,24,44.90
2007,12,16,08,25,32.80
2007,12,16,08,26,34.80
2007,12,16,08,27,33.40
2007,12,16,08,28,31.90
2007,12,16,08,29,37.10
2007,12,16,08,30,31.00
2007,12,16,08,31,32.90
2007,12,16,08,32,35.40
2007,12,16,08,33,29.10
2007,12,16,08,34,27.60
2007,12,16,08,35,27.00
2007,12,16,08,36,34.10
2007,12,16,08,37,31.40
2007,12,16,08,38,31.10
2007,12,16,08,39,35.30
2007,12,16,08,40,24.50
2007,12,16,08,41,33.80
2007,12,16,08,42,28.90
2007,12,16,08,43,35.90
2007,12,16,08,44,29.10
2007,12,16,08,45,25.20
2007,12,16,08,46,23.20
2007,12,16,08,47,27.80
2007,12,16,08,48,35.00
2007,12,16,08,49,43.40
2007,12,16,08,50,33.00
2007,12,16,08,51,29.40
2007,12,16,08,52,35.30
2007,12,16,08,53,32.20
2007,12,16,08,54,26.30
2007,12,16,08,55,35.50
2007,12,16,08,56,35.20
2007,12,16,08,57,36.50
2007,12,16,08,58,31.40
2007,12,16,08,59,22.50
2007,12,16,09,00,33.20
2007,12,16,09,01,26.90
2007,12,16,09,02,42.20
2007,12,16,09,03,39.10
2007,12,16,09,04,35.80
2007,12,16,09,05,39.80
2007,12,16,09,06,34.50
2007,12,16,09,07,30.60
2007,12,16,09,08,30.30
2007,12,16,09,09,31.10
2007,12,16,09,10,31.30
2007,12,16,09,11,33.60
2007,12,16,09,12,34.20
2007,12,16,09,13,40.80
2007,12,16,09,14,37.80
2007,12,16,09,15,32.60
2007,12,16,09,16,35.40
2007,12,16,09,17,28.50
2007,12,16,09,18,27.80
2007,12,16,09,19,26.40
2007,12,16,09,20,28.60
2007,12,16,09,21,31.50
2007,12,16,09,22,28.00
2007,12,16,09,23,20.50
2007,12,16,09,24,33.00
2007,12,16,09,25,22.40
2007,12,16,09,26,33.10
2007,12,16,09,27,27.90
2007,12,16,09,28,33.70
2007,12,16,09,29,37.60
2007,12,16,09,30,33.40
2007,12,16,09,31,23.40
2007,12,16,09,32,22.30
2007,12,16,09,33,34.90
2007,12,16,09,34,34.30
2007,12,16,09,35,35.70
2007,12,16,09,36,33.10
2007,12,16,09,37,29.50
2007,12,16,09,38,27.90
2007,12,16,09,39,33.00
2007,12,16,09,40,26.60
2007,12,16,09,41,24.50
2007,12,16,09,42,33.00
2007,12,16,09,43,30.40
2007,12,16,09,44,43.20
2007,12,16,09,45,27.60
2007,12,16,09,46,36.10
2007,12,16,09,47,34.30
2007,12,16,09,48,26.00
2007,12,16,09,49,26.70
2007,12,16,09,50,29.30
2007,12,16,09,51,28.80
2007,12,16,09,52,23.40
2007,12,16,09,53,29.30
2007,12,16,09,54,41.20
2007,12,16,09,55,37.20
2007,12,16,09,56,29.10
2007,12,16,09,57,28.00
2007,12,16,09,58,33.60
2007,12,16,09,59,32.90
2007,12,16,10,00,33.30
2007,12,16,10,01,27.10
2007,12,16,10,02,25.40
2007,12,16,10,03,24.00
2007,12,16,10,04,23.10
2007,12,16,10,05,30.90
2007,12,16,10,06,30.80
2007,12,16,10,07,23.10
2007,12,16,10,08,27.50
2007,12,16,10,09,37.80
2007,12,16,10,10,22.00
2007,12,16,10,11,38.10
2007,12,16,10,12,27.40
2007,12,16,10,13,22.60
2007,12,16,10,14,31.30
2007,12,16,10,15,25.20
2007,12,16,10,16,30.70
2007,12,16,10,17,21.10
2007,12,16,10,18,26.70
2007,12,16,10,19,31.30
2007,12,16,10,20,38.00
2007,12,16,10,21,30.10
2007,12,16,10,22,27.50
2007,12,16,10,23,30.70
2007,12,16,10,24,22.10
2007,12,16,10,25,35.10
2007,12,16,10,26,28.20
2007,12,16,10,27,29.20
2007,12,16,10,28,29.30
2007,12,16,10,29,43.20
2007,12,16,10,30,34.00
2007,12,16,10,31,37.20
2007,12,16,10,32,23.90
2007,12,16,10,33,28.90
2007,12,16,10,34,40.30
2007,12,16,10,35,23.40
2007,12,16,10,36,30.40
2007,12,16,10,37,38.00
2007,12,16,10,38,31.50
2007,12,16,10,39,26.30
2007,12,16,10,40,29.90
2007,12,16,10,41,31.10
2007,12,16,10,42,24.90
2007,12,16,10,43,30.70
2007,12,16,10,44,38.50
2007,12,16,10,45,32.20
2007,12,16,10,46,35.40
2007,12,16,10,47,41.10
2007,12,16,10,48,27.30
2007,12,16,10,49,35.70
2007,12,16,10,50,30.80
2007,12,16,10,51,28.60
2007,12,16,10,52,29.10
2007,12,16,10,53,38.10
2007,12,16,10,54,29.90
2007,12,16,10,55,40.00
2007,12,16,10,56,37.00
2007,12,16,10,57,37.10
2007,12,16,10,58,26.60
2007,12,16,10,59,28.60
2007,12,16,11,00,35.50
2007,12,16,11,01,42.70
2007,12,16,11,02,30.00
2007,12,16,11,03,36.50
2007,12,16,11,04,35.70
2007,12,16,11,05,27.60
2007,12,16,11,06,22.80
2007,12,16,11,07,37.10
2007,12,16,11,08,36.70
2007,12,16,11,09,34.90
2007,12,16,11,10,39.10
2007,12,16,11,11,32.30
2007,12,16,11,12,42.70
2007,12,16,11,13,40.10
2007,12,16,11,14,33.20
2007,12,16,11,15,33.50
2007,12,16,11,16,34.10
2007,12,16,11,17,57.30
2007,12,16,11,18,32.20
2007,12,16,11,19,28.90
2007,12,16,11,20,31.20
2007,12,16,11,21,43.20
2007,12,16,11,22,35.00
2007,12,16,11,23,46.40
2007,12,16,11,24,36.10
2007,12,16,11,25,38.60
2007,12,16,11,26,46.50
2007,12,16,11,27,42.80
2007,12,16,11,28,39.10
2007,12,16,11,29,33.60
2007,12,16,11,30,39.60
2007,12,16,11,31,28.10
2007,12,16,11,32,34.50
2007,12,16,11,33,30.90
2007,12,16,11,34,35.50
2007,12,16,11,35,34.20
2007,12,16,11,36,37.90
2007,12,16,11,37,35.40
2007,12,16,11,38,27.10
2007,12,16,11,39,44.90
2007,12,16,11,40,34.50
2007,12,16,11,41,41.40
2007,12,16,11,42,45.70
2007,12,16,11,43,31.50
2007,12,16,11,44,28.00
2007,12,16,11,45,26.60
2007,12,16,11,46,40.10
2007,12,16,11,47,30.20
2007,12,16,11,48,36.60
2007,12,16,11,49,31.70
2007,12,16,11,50,31.50
2007,12,16,11,51,41.90
2007,12,16,11,52,30.80
2007,12,16,11,53,20.90
2007,12,16,11,54,30.30
2007,12,16,11,55,31.00
2007,12,16,11,56,36.60
2007,12,16,11,57,37.80
2007,12,16,11,58,33.50
2007,12,16,11,59,31.10
2007,12,16,12,00,31.50
2007,12,16,12,01,27.10
2007,12,16,12,02,40.50
2007,12,16,12,03,47.10
2007,12,16,12,04,37.80
2007,12,16,12,05,37.30
2007,12,16,12,06,33.90
2007,12,16,12,07,37.30
2007,12,16,12,08,27.60
2007,12,16,12,09,27.70
2007,12,16,12,10,22.90
2007,12,16,12,11,40.00
2007,12,16,12,12,32.30
2007,12,16,12,13,30.40
2007,12,16,12,14,31.90
2007,12,16,12,15,24.00
2007,12,16,12,16,25.60
2007,12,16,12,17,37.50
2007,12,16,12,18,27.70
2007,12,16,12,19,35.40
2007,12,16,12,20,24.30
2007,12,16,12,21,32.80
2007,12,16,12,22,28.90
2007,12,16,12,23,33.60
2007,12,16,12,24,25.70
2007,12,16,12,25,28.10
2007,12,16,12,26,21.40
2007,12,16,12,27,32.10
2007,12,16,12,28,30.50
2007,12,16,12,29,31.40
2007,12,16,12,30,29.80
2007,12,16,12,31,29.60
2007,12,16,12,32,24.50
2007,12,16,12,33,21.50
2007,12,16,12,34,26.30
2007,12,16,12,35,28.60
2007,12,16,12,36,32.80
2007,12,16,12,37,29.90
2007,12,16,12,38,21.30
2007,12,16,12,39,23.90
2007,12,16,12,40,33.30
2007,12,16,12,41,35.60
2007,12,16,12,42,23.40
2007,12,16,12,43,27.30
2007,12,16,12,44,32.80
2007,12,16,12,45,31.50
2007,12,16,12,46,25.00
2007,12,16,12,47,23.40
2007,12,16,12,48,27.90
2007,12,16,12,49,34.50
2007,12,16,12,50,34.70
2007,12,16,12,51,33.00
2007,12,16,12,52,36.10
2007,12,16,12,53,25.40
2007,12,16,12,54,28.80
2007,12,16,12,55,33.10
2007,12,16,12,56,41.10
2007,12,16,12,57,35.20
2007,12,16,12,58,24.30
2007,12,16,12,59,29.10
2007,12,16,13,00,31.60
2007,12,16,13,01,31.80
2007,12,16,13,02,27.80
2007,12,16,13,03,32.20
2007,12,16,13,04,29.40
2007,12,16,13,05,28.10
2007,12,16,13,06,37.10
2007,12,16,13,07,31.90
2007,12,16,13,08,32.50
2007,12,16,13,09,27.40
2007,12,16,13,10,36.00
2007,12,16,13,11,28.20
2007,12,16,13,12,27.40
2007,12,16,13,13,36.00
2007,12,16,13,14,30.20
2007,12,16,13,15,32.60
2007,12,16,13,16,27.40
2007,12,16,13,17,22.30
2007,12,16,13,18,22.40
2007,12,16,13,19,20.50
2007,12,16,13,20,25.50
2007,12,16,13,21,31.60
2007,12,16,13,22,22.90
2007,12,16,13,23,15.60
2007,12,16,13,24,21.80
2007,12,16,13,25,26.90
2007,12,16,13,26,33.10
2007,12,16,13,27,33.90
2007,12,16,13,28,23.00
2007,12,16,13,29,22.40
2007,12,16,13,30,13.10
2007,12,16,13,31,17.40
2007,12,16,13,32,26.60
2007,12,16,13,33,25.30
2007,12,16,13,34,21.20
2007,12,16,13,35,19.90
2007,12,16,13,36,22.50
2007,12,16,13,37,25.80
2007,12,16,13,38,23.90
2007,12,16,13,39,27.80
2007,12,16,13,40,20.70
2007,12,16,13,41,32.00
2007,12,16,13,42,34.00
2007,12,16,13,43,26.80
2007,12,16,13,44,26.50
2007,12,16,13,45,28.70
2007,12,16,13,46,28.70
2007,12,16,13,47,27.60
2007,12,16,13,48,28.60
2007,12,16,13,49,32.60
2007,12,16,13,50,26.10
2007,12,16,13,51,24.60
2007,12,16,13,52,22.90
2007,12,16,13,53,22.60
2007,12,16,13,54,26.80
2007,12,16,13,55,26.00
2007,12,16,13,56,29.50
2007,12,16,13,57,43.50
2007,12,16,13,58,29.50
2007,12,16,13,59,25.40
2007,12,16,14,00,26.60
2007,12,16,14,01,30.40
2007,12,16,14,02,28.20
2007,12,16,14,03,27.40
2007,12,16,14,04,31.60
2007,12,16,14,05,35.60
2007,12,16,14,06,29.10
2007,12,16,14,07,33.00
2007,12,16,14,08,26.20
2007,12,16,14,09,34.60
2007,12,16,14,10,28.00
2007,12,16,14,11,33.30
2007,12,16,14,12,27.20
2007,12,16,14,13,25.00
2007,12,16,14,14,33.70
2007,12,16,14,15,32.90
2007,12,16,14,16,22.70
2007,12,16,14,17,24.00
2007,12,16,14,18,24.40
2007,12,16,14,19,28.20
2007,12,16,14,20,31.10
2007,12,16,14,21,23.40
2007,12,16,14,22,27.00
2007,12,16,14,23,23.60
2007,12,16,14,24,31.10
2007,12,16,14,25,24.00
2007,12,16,14,26,24.20
2007,12,16,14,27,33.30
2007,12,16,14,28,25.20
2007,12,16,14,29,18.90
2007,12,16,14,30,21.50
2007,12,16,14,31,26.50
2007,12,16,14,32,33.20
2007,12,16,14,33,40.70
2007,12,16,14,34,21.80
2007,12,16,14,35,25.20
2007,12,16,14,36,22.70
2007,12,16,14,37,28.60
2007,12,16,14,38,21.90
2007,12,16,14,39,19.60
2007,12,16,14,40,31.80
2007,12,16,14,41,31.30
2007,12,16,14,42,35.10
2007,12,16,14,43,34.30
2007,12,16,14,44,27.00
2007,12,16,14,45,29.90
2007,12,16,14,46,29.30
2007,12,16,14,47,21.50
2007,12,16,14,48,22.70
2007,12,16,14,49,29.40
2007,12,16,14,50,26.70
2007,12,16,14,51,26.70
2007,12,16,14,52,24.50
2007,12,16,14,53,27.30
2007,12,16,14,54,17.70
2007,12,16,14,55,31.40
2007,12,16,14,56,31.60
2007,12,16,14,57,29.90
2007,12,16,14,58,29.00
2007,12,16,14,59,38.60
2007,12,16,15,00,26.50
2007,12,16,15,01,38.10
2007,12,16,15,02,31.00
2007,12,16,15,03,26.10
2007,12,16,15,04,32.00
2007,12,16,15,05,28.00
2007,12,16,15,06,28.60
2007,12,16,15,07,35.60
2007,12,16,15,08,27.40
2007,12,16,15,09,34.50
2007,12,16,15,10,32.00
2007,12,16,15,11,24.80
2007,12,16,15,12,31.60
2007,12,16,15,13,29.20
2007,12,16,15,14,34.60
2007,12,16,15,15,30.10
2007,12,16,15,16,27.60
2007,12,16,15,17,25.20
2007,12,16,15,18,30.90
2007,12,16,15,19,26.60
2007,12,16,15,20,28.40
2007,12,16,15,21,30.10
2007,12,16,15,22,34.40
2007,12,16,15,23,26.80
2007,12,16,15,24,32.90
2007,12,16,15,25,30.00
2007,12,16,15,26,27.40
2007,12,16,15,27,30.60
2007,12,16,15,28,29.30
2007,12,16,15,29,29.00
2007,12,16,15,30,30.50
2007,12,16,15,31,27.60
2007,12,16,15,32,36.20
2007,12,16,15,33,25.00
2007,12,16,15,34,27.50
2007,12,16,15,35,36.10
2007,12,16,15,36,31.10
2007,12,16,15,37,35.00
2007,12,16,15,38,38.00
2007,12,16,15,39,27.80
2007,12,16,15,40,34.70
2007,12,16,15,41,31.70
2007,12,16,15,42,27.30
2007,12,16,15,43,25.10
2007,12,16,15,44,20.60
2007,12,16,15,45,33.60
2007,12,16,15,46,29.80
2007,12,16,15,47,22.20
2007,12,16,15,48,32.00
2007,12,16,15,49,35.80
2007,12,16,15,50,31.80
2007,12,16,15,51,31.30
2007,12,16,15,52,36.60
2007,12,16,15,53,31.70
2007,12,16,15,54,26.90
2007,12,16,15,55,28.40
2007,12,16,15,56,20.40
2007,12,16,15,57,30.10
2007,12,16,15,58,38.10
2007,12,16,15,59,22.60
2007,12,16,16,00,26.80
2007,12,16,16,01,33.80
2007,12,16,16,02,31.10
2007,12,16,16,03,21.90
2007,12,16,16,04,26.60
2007,12,16,16,05,21.90
2007,12,16,16,06,26.90
2007,12,16,16,07,22.40
2007,12,16,16,08,24.40
2007,12,16,16,09,27.30
2007,12,16,16,10,25.70
2007,12,16,16,11,32.20
2007,12,16,16,12,39.90
2007,12,16,16,13,26.40
2007,12,16,16,14,30.50
2007,12,16,16,15,22.90
2007,12,16,16,16,30.80
2007,12,16,16,17,25.20
2007,12,16,16,18,22.00
2007,12,16,16,19,27.50
2007,12,16,16,20,29.10
2007,12,16,16,21,30.40
2007,12,16,16,22,23.20
2007,12,16,16,23,25.60
2007,12,16,16,24,31.70
2007,12,16,16,25,24.00
2007,12,16,16,26,25.00
2007,12,16,16,27,32.20
2007,12,16,16,28,36.40
2007,12,16,16,29,30.10
2007,12,16,16,30,34.50
2007,12,16,16,31,34.60
2007,12,16,16,32,27.80
2007,12,16,16,33,31.70
2007,12,16,16,34,30.20
2007,12,16,16,35,27.80
2007,12,16,16,36,29.30
2007,12,16,16,37,36.80
2007,12,16,16,38,30.40
2007,12,16,16,39,29.40
2007,12,16,16,40,25.60
2007,12,16,16,41,27.60
2007,12,16,16,42,30.30
2007,12,16,16,43,35.80
2007,12,16,16,44,31.80
2007,12,16,16,45,23.70
2007,12,16,16,46,43.00
2007,12,16,16,47,28.40
2007,12,16,16,48,28.20
2007,12,16,16,49,26.40
2007,12,16,16,50,34.10
2007,12,16,16,51,29.10
2007,12,16,16,52,34.30
2007,12,16,16,53,29.40
2007,12,16,16,54,32.60
2007,12,16,16,55,25.80
2007,12,16,16,56,29.80
2007,12,16,16,57,38.90
2007,12,16,16,58,32.50
2007,12,16,16,59,32.70
2007,12,16,17,00,28.10
2007,12,16,17,01,30.80
2007,12,16,17,02,25.00
2007,12,16,17,03,33.70
2007,12,16,17,04,32.70
2007,12,16,17,05,34.80
2007,12,16,17,06,26.40
2007,12,16,17,07,24.10
2007,12,16,17,08,26.20
2007,12,16,17,09,25.10
2007,12,16,17,10,35.50
2007,12,16,17,11,31.70
2007,12,16,17,12,25.70
2007,12,16,17,13,32.70
2007,12,16,17,14,23.30
2007,12,16,17,15,26.80
2007,12,16,17,16,31.40
2007,12,16,17,17,19.10
2007,12,16,17,18,18.70
2007,12,16,17,19,18.40
2007,12,16,17,20,29.90
2007,12,16,17,21,20.60
2007,12,16,17,22,16.60
2007,12,16,17,23,24.00
2007,12,16,17,24,33.40
2007,12,16,17,25,25.00
2007,12,16,17,26,31.40
2007,12,16,17,27,36.00
2007,12,16,17,28,35.20
2007,12,16,17,29,34.50
2007,12,16,17,30,28.50
2007,12,16,17,31,28.50
2007,12,16,17,32,26.80